Home > Weather > Puri > Past weeks

Flag for India Weather for the Past 2 Weeks in Puri, Odisha, India

Now
100 °F

Scattered clouds.


Feels Like: 112 °F
Forecast: 80 / 94 °F
Wind: 8 mph from Southwest

Location: Calcutta / Dum Dum

Current Time: Apr 30, 2016 at 3:39:53 PM

Latest Report: Apr 30, 2016 at 3:00 PM


Visibility: 2 mi

Pressure: 29.62 "Hg

Humidity: 42%

Dew Point: 73 °F

Location of PuriLocation

Historic Weather in Puri — Graph

°F

Puri Temperature Yesterday

Maximum temperature yesterday: 106 °F (at 1:30 PM)
Minimum temperature yesterday: 84 °F (at 2:30 AM)
Average temperature yesterday: 92 °F

High & Low Weather Summary for the Past Weeks

 TemperatureHumidityPressure
High108 °F (Apr 15, 2:00 PM)89% (Apr 16, 4:30 AM)29.80 "Hg (Apr 16, 4:30 AM)
Low82 °F (Apr 16, 4:30 AM)18% (Apr 24, 3:00 PM)29.42 "Hg (Apr 23, 4:30 PM)
Average91 °F68%29.63 "Hg
* Reported Apr 15 1:30 PM — Apr 30 2:00 PM, Puri, Weather by CustomWeather, © 2016

Note: Actual official high and low records may vary slightly from our data, if they occured in-between our weather recording intervals... More about our weather records

Advertising

Puri Weather History for the Previous 24 Hours

Scroll right to see more
 ConditionsComfort  
Time TempWeatherWind HumidityBarometerVisibility
2:00 PM
Sat, Apr 30
102 °FHaze.6 mph37%29.65 "Hg2 mi
1:30 PM102 °FHaze.9 mph37%29.65 "Hg2 mi
12:30 PM102 °FHaze.9 mph37%29.68 "Hg2 mi
12:00 PM102 °FHaze.9 mph37%29.68 "Hg2 mi
11:30 AM100 °FHaze.7 mph40%29.71 "Hg2 mi
11:00 AM100 °FHaze.6 mph40%29.71 "Hg2 mi
10:30 AM99 °FHaze.7 mph42%29.71 "Hg2 mi
10:00 AM97 °FHaze.6 mph44%29.71 "Hg2 mi
9:30 AM95 °FHaze.6 mph50%29.71 "Hg2 mi
9:00 AM93 °FHaze.6 mph56%29.74 "Hg2 mi
8:30 AM91 °FHaze.3 mph59%29.71 "Hg2 mi
7:30 AM88 °FScattered clouds.3 mph79%29.71 "Hg2 mi
6:30 AM86 °FScattered clouds.5 mph84%29.68 "Hg2 mi
6:00 AM84 °FScattered clouds.7 mph84%29.65 "Hg2 mi
5:00 AM82 °FPassing clouds.9 mph79%29.65 "Hg2 mi
4:30 AM84 °FHaze.7 mph74%29.65 "Hg2 mi
4:00 AM84 °FHaze.3 mph74%29.65 "Hg2 mi
3:30 AM84 °FPassing clouds.3 mph74%29.62 "Hg2 mi
3:00 AM84 °FPassing clouds.No wind74%29.62 "Hg2 mi
2:30 AM86 °FPassing clouds.No wind70%29.62 "Hg2 mi
2:00 AM88 °FHaze.No wind70%29.62 "Hg2 mi
1:30 AM88 °FHaze.No wind70%29.65 "Hg2 mi
1:00 AM88 °FHaze.3 mph70%29.65 "Hg2 mi
12:30 AM88 °FHaze.3 mph70%29.65 "Hg2 mi
12:00 AM88 °FHaze.3 mph66%29.62 "Hg2 mi
11:30 PM
Fri, Apr 29
88 °FPassing clouds.3 mph66%29.65 "Hg2 mi
11:00 PM88 °FPassing clouds.3 mph66%29.65 "Hg2 mi
10:30 PM88 °FPassing clouds.3 mph66%29.65 "Hg2 mi
10:00 PM88 °FPassing clouds.8 mph75%29.65 "Hg2 mi
9:30 PM88 °FHaze.14 mph75%29.65 "Hg2 mi
9:00 PM88 °FHaze.17 mph79%29.68 "Hg2 mi
8:30 PM88 °FHaze.12 mph84%29.71 "Hg2 mi
8:00 PM88 °FPassing clouds.12 mph84%29.68 "Hg2 mi
7:30 PM90 °FPassing clouds.16 mph79%29.68 "Hg2 mi
7:00 PM90 °FPassing clouds.15 mph79%29.68 "Hg2 mi
6:30 PM91 °FScattered clouds.20 mph75%29.65 "Hg2 mi
6:00 PM93 °FHaze.14 mph71%29.62 "Hg2 mi
5:30 PM95 °FPartly sunny.14 mph67%29.62 "Hg2 mi
5:00 PM97 °FHaze.14 mph60%29.62 "Hg2 mi
4:30 PM99 °FHaze.14 mph57%29.62 "Hg2 mi
4:00 PM100 °FHaze.12 mph53%29.62 "Hg2 mi
3:30 PM102 °FScattered clouds.12 mph48%29.62 "Hg2 mi
3:00 PM104 °FHaze.9 mph45%29.62 "Hg2 mi
Weather by CustomWeather, © 2016

See weather overviewHow to use our weather pages